When you browse on this site, cookies collect data to enhance your experience and personalize the content and advertising you see.
Visit our Privacy Policy to learn more. By continuing to use the site, you agree to this use of cookies and data.
  • In Czech Republic
  • List of Countries
  • For 7 days
  • Water Temperature
  • Satellite Maps
  • Weather Map
  • Weather Widgets
  • user-avatar
    Login

    Hourly Weather Kamloops

    Today, 26 April, Friday

    Time Temperature Precipitation Wind Pressure Humidity
    00:00 +6°C° 0 mm 0 mps 705 mmHg 52%
    01:00 +6°C° 0 mm 0 mps 705 mmHg 54%
    02:00 +5°C° 0 mm 0 mps 705 mmHg 57%
    03:00 +5°C° 0 mm 0 mps 705 mmHg 59%
    04:00 +4°C° 0 mm 0 mps 705 mmHg 62%
    05:00 +6°C° 0 mm 0 mps 705 mmHg 57%
    06:00 +7°C° 0 mm 0 mps 705 mmHg 53%
    07:00 +9°C° 0 mm 0 mps 704 mmHg 49%
    08:00 +12°C° 0 mm 1 mps 704 mmHg 45%
    09:00 +13°C° 0 mm 1 mps 704 mmHg 40%
    10:00 +15°C° 0 mm 2 mps 704 mmHg 36%
    11:00 +16°C° 0.1 mm 2 mps 703 mmHg 34%
    12:00 +16°C° 0.1 mm 3 mps 703 mmHg 33%
    13:00 +17°C° 0.1 mm 3 mps 702 mmHg 31%
    14:00 +16°C° 0 mm 3 mps 702 mmHg 32%
    15:00 +15°C° 0 mm 4 mps 702 mmHg 32%
    16:00 +14°C° 0 mm 4 mps 701 mmHg 32%
    17:00 +13°C° 0 mm 4 mps 701 mmHg 37%
    18:00 +11°C° 0 mm 3 mps 702 mmHg 41%
    19:00 +10°C° 0 mm 3 mps 702 mmHg 46%
    20:00 +8°C° 0 mm 2 mps 702 mmHg 53%
    21:00 +7°C° 0 mm 2 mps 702 mmHg 61%
    22:00 +6°C° 0 mm 1 mps 703 mmHg 68%
    23:00 +6°C° 0.1 mm 1 mps 703 mmHg 71%

    Tomorrow, 27 April, Saturday

    Time Temperature Precipitation Wind Pressure Humidity
    00:00 +6°C° 0.1 mm 1 mps 703 mmHg 73%
    01:00 +5°C° 0.1 mm 1 mps 703 mmHg 76%
    02:00 +4°C° 0.5 mm 2 mps 703 mmHg 76%
    03:00 +2°C° 0.5 mm 3 mps 703 mmHg 76%
    04:00 +1°C° 0.5 mm 4 mps 702 mmHg 76%
    05:00 0°C° 0.3 mm 4 mps 702 mmHg 71%
    06:00 0°C° 0.3 mm 5 mps 702 mmHg 67%
    07:00 -1°C° 0.3 mm 5 mps 702 mmHg 63%
    08:00 +1°C° 0 mm 5 mps 703 mmHg 57%
    09:00 +2°C° 0 mm 6 mps 703 mmHg 50%
    10:00 +3°C° 0 mm 6 mps 703 mmHg 43%
    11:00 +4°C° 0 mm 6 mps 703 mmHg 44%
    12:00 +5°C° 0 mm 7 mps 703 mmHg 44%
    13:00 +6°C° 0 mm 7 mps 703 mmHg 44%
    14:00 +6°C° 0.1 mm 7 mps 703 mmHg 45%
    15:00 +7°C° 0.1 mm 6 mps 703 mmHg 46%
    16:00 +7°C° 0.1 mm 6 mps 703 mmHg 46%
    17:00 +6°C° 0.1 mm 5 mps 704 mmHg 51%
    18:00 +5°C° 0.1 mm 4 mps 704 mmHg 55%
    19:00 +4°C° 0.1 mm 3 mps 705 mmHg 59%
    20:00 +3°C° 0 mm 3 mps 706 mmHg 61%
    21:00 +3°C° 0 mm 2 mps 707 mmHg 63%
    22:00 +1°C° 0 mm 2 mps 708 mmHg 65%
    23:00 +1°C° 0 mm 2 mps 708 mmHg 66%

    Day after tomorrow, 28 April, Sunday

    Time Temperature Precipitation Wind Pressure Humidity
    00:00 -1°C° 0 mm 2 mps 709 mmHg 67%
    01:00 -1°C° 0 mm 2 mps 710 mmHg 69%
    02:00 +1°C° 0 mm 1 mps 710 mmHg 69%
    03:00 +1°C° 0 mm 1 mps 711 mmHg 70%
    04:00 +1°C° 0 mm 1 mps 711 mmHg 71%
    05:00 +2°C° 0 mm 1 mps 711 mmHg 65%
    06:00 +3°C° 0 mm 1 mps 712 mmHg 60%
    07:00 +5°C° 0 mm 1 mps 712 mmHg 54%
    08:00 +6°C° 0 mm 1 mps 712 mmHg 47%
    09:00 +8°C° 0 mm 1 mps 712 mmHg 40%
    10:00 +9°C° 0 mm 2 mps 711 mmHg 33%
    11:00 +12°C° 0 mm 1 mps 711 mmHg 30%
    12:00 +13°C° 0 mm 1 mps 711 mmHg 28%
    13:00 +15°C° 0 mm 1 mps 710 mmHg 26%
    14:00 +14°C° 0 mm 1 mps 710 mmHg 26%
    15:00 +14°C° 0 mm 1 mps 709 mmHg 27%
    16:00 +13°C° 0 mm 1 mps 709 mmHg 27%
    17:00 +11°C° 0 mm 1 mps 709 mmHg 32%
    18:00 +9°C° 0 mm 1 mps 708 mmHg 38%
    19:00 +7°C° 0 mm 1 mps 708 mmHg 44%
    20:00 +5°C° 0 mm 0 mps 709 mmHg 47%
    21:00 +4°C° 0 mm 0 mps 709 mmHg 51%
    22:00 +2°C° 0 mm 0 mps 709 mmHg 54%
    23:00 +2°C° 0 mm 0 mps 709 mmHg 56%

    29 April, Monday

    Time Temperature Precipitation Wind Pressure Humidity
    00:00 +2°C° 0 mm 0 mps 709 mmHg 58%
    01:00 +1°C° 0 mm 0 mps 709 mmHg 60%
    02:00 +1°C° 0 mm 0 mps 709 mmHg 63%
    03:00 0°C° 0 mm 0 mps 710 mmHg 65%
    04:00 +1°C° 0 mm 1 mps 710 mmHg 67%
    05:00 +3°C° 0 mm 1 mps 710 mmHg 61%
    06:00 +4°C° 0 mm 1 mps 710 mmHg 56%
    07:00 +6°C° 0 mm 1 mps 710 mmHg 50%
    08:00 +8°C° 0 mm 1 mps 709 mmHg 45%
    09:00 +8°C° 0 mm 2 mps 709 mmHg 41%
    10:00 +10°C° 0 mm 2 mps 709 mmHg 36%
    11:00 +12°C° 0.1 mm 2 mps 708 mmHg 34%
    12:00 +13°C° 0.1 mm 2 mps 708 mmHg 32%
    13:00 +13°C° 0.1 mm 2 mps 708 mmHg 30%
    14:00 +13°C° 0.1 mm 2 mps 707 mmHg 32%
    15:00 +12°C° 0.1 mm 3 mps 707 mmHg 33%
    16:00 +11°C° 0.1 mm 3 mps 707 mmHg 34%
    17:00 +9°C° 0.1 mm 2 mps 707 mmHg 42%
    18:00 +8°C° 0.1 mm 2 mps 707 mmHg 49%
    19:00 +7°C° 0.1 mm 1 mps 707 mmHg 56%
    20:00 +6°C° 0 mm 1 mps 708 mmHg 60%
    21:00 +5°C° 0 mm 1 mps 708 mmHg 64%
    22:00 +4°C° 0 mm 1 mps 709 mmHg 67%
    23:00 +3°C° 0 mm 1 mps 709 mmHg 70%

    30 April, Tuesday

    Time Temperature Precipitation Wind Pressure Humidity
    00:00 +3°C° 0 mm 1 mps 709 mmHg 72%
    01:00 +2°C° 0 mm 1 mps 709 mmHg 75%
    02:00 +2°C° 0 mm 1 mps 709 mmHg 76%
    03:00 +1°C° 0 mm 1 mps 709 mmHg 77%
    04:00 +1°C° 0 mm 1 mps 709 mmHg 78%
    05:00 +2°C° 0 mm 1 mps 709 mmHg 70%
    06:00 +4°C° 0 mm 1 mps 709 mmHg 62%
    07:00 +6°C° 0 mm 1 mps 709 mmHg 54%
    08:00 +8°C° 0 mm 1 mps 708 mmHg 47%
    09:00 +10°C° 0 mm 1 mps 708 mmHg 40%
    10:00 +12°C° 0 mm 2 mps 708 mmHg 33%
    11:00 +13°C° 0 mm 2 mps 707 mmHg 31%
    12:00 +14°C° 0 mm 2 mps 707 mmHg 29%
    13:00 +15°C° 0 mm 2 mps 706 mmHg 27%
    14:00 +14°C° 0 mm 2 mps 706 mmHg 28%
    15:00 +14°C° 0 mm 1 mps 705 mmHg 29%
    16:00 +14°C° 0 mm 1 mps 705 mmHg 30%
    17:00 +12°C° 0 mm 1 mps 704 mmHg 35%
    18:00 +10°C° 0 mm 1 mps 704 mmHg 41%
    19:00 +8°C° 0 mm 0 mps 704 mmHg 47%
    20:00 +7°C° 0 mm 0 mps 704 mmHg 49%
    21:00 +7°C° 0 mm 1 mps 704 mmHg 52%
    22:00 +6°C° 0 mm 1 mps 705 mmHg 54%
    23:00 +5°C° 0 mm 1 mps 705 mmHg 58%

    1 May, Wednesday

    Time Temperature Precipitation Wind Pressure Humidity
    00:00 +5°C° 0 mm 1 mps 705 mmHg 61%
    01:00 +4°C° 0 mm 1 mps 704 mmHg 65%
    02:00 +3°C° 0 mm 1 mps 704 mmHg 68%
    03:00 +3°C° 0 mm 1 mps 704 mmHg 72%
    04:00 +3°C° 0 mm 1 mps 704 mmHg 76%
    05:00 +4°C° 0 mm 1 mps 704 mmHg 69%
    06:00 +6°C° 0 mm 1 mps 704 mmHg 63%
    07:00 +7°C° 0 mm 1 mps 704 mmHg 57%
    08:00 +8°C° 0 mm 2 mps 704 mmHg 51%
    09:00 +10°C° 0 mm 2 mps 704 mmHg 45%
    10:00 +12°C° 0 mm 3 mps 704 mmHg 39%
    11:00 +12°C° 0 mm 3 mps 703 mmHg 38%
    12:00 +13°C° 0 mm 3 mps 703 mmHg 37%
    13:00 +14°C° 0 mm 3 mps 703 mmHg 35%
    14:00 +14°C° 0 mm 3 mps 703 mmHg 35%
    15:00 +14°C° 0 mm 3 mps 703 mmHg 35%
    16:00 +14°C° 0 mm 3 mps 702 mmHg 35%
    17:00 +12°C° 0 mm 3 mps 703 mmHg 42%
    18:00 +10°C° 0 mm 3 mps 703 mmHg 50%
    19:00 +9°C° 0 mm 2 mps 703 mmHg 57%
    20:00 +7°C° 0 mm 2 mps 704 mmHg 63%
    21:00 +6°C° 0 mm 2 mps 704 mmHg 68%
    22:00 +5°C° 0 mm 2 mps 705 mmHg 74%
    23:00 +5°C° 0 mm 1 mps 705 mmHg 77%
    Show more